Location: Denver
(39.7392°N, 104.9903°W)
Time: 09:56:01
(UTC-07:00)

ISS - Pass Details

Date: 05 June 2018
Orbit: 411 x 421 km, 51.6° (Epoch: 11 December)

Event Time Altitude Azimuth Distance (km) Brightness Sun altitude
Rises 21:35:21 0° 297° (WNW) 2,353 1.7 -11.7°
Reaches altitude 10° 21:37:41 10° 283° (WNW) 1,481 0.0 -12.0°
Maximum altitude 21:40:25 24° 227° (SW) 902 -2.1 -12.4°
Enters shadow 21:42:28 14° 179° (S) 1,255 -1.8 -12.7°
